Location: Poughquag
(41.6090°N, 73.6820°W)
Time: 03:37:38
(UTC-04:00)

Explorer 11/Cluster Stage 4 - Pass Details

Date: 29 May 2020
Orbit: 467 x 1259 km, 28.8° (Epoch: 06 July)

Event Time Altitude Azimuth Distance (km) Brightness Sun altitude
Rises 10:53:07 0° 257° (WSW) 4,081 10.0 58.1°
Reaches altitude 10° 10:56:21 10° 246° (WSW) 3,178 9.6 58.6°
Maximum altitude 11:03:01 29° 191° (SSW) 2,135 9.4 59.7°
Drops below altitude 10° 11:09:42 10° 136° (SE) 3,176 10.3 60.7°
Sets 11:12:56 0° 126° (SE) 4,077 10.7 61.2°
